Location: Boitzum
(52.1496°N, 9.6943°E)
Time: 00:21:11
(UTC+00:00)

Cosmos 2074 Rocket - Pass Details

Date: 28 April 2026
Orbit: 967 x 984 km, 82.9° (Epoch: 19 May)

Event Time Altitude Azimuth Distance (km) Brightness Sun altitude
Rises 19:31:08 0° 256° (WSW) 3,682 7.7 -7.4°
Reaches altitude 10° 19:35:22 10° 284° (WNW) 2,742 7.6 -7.9°
Maximum altitude 19:38:07 13° 310° (NW) 2,533 7.8 -8.3°
Drops below altitude 10° 19:40:53 10° 336° (NNW) 2,752 7.4 -8.6°
Sets 19:45:10 0° 4° (N) 3,706 7.6 -9.1°
